TimeCDT,TemperatureF,Dew PointF,Humidity,Sea Level PressureIn,VisibilityMPH,Wind Direction,Wind SpeedMPH,Gust SpeedMPH,PrecipitationIn,Events,Conditions,WindDirDegrees,DateUTC
12:58 AM,54.0,52.5,95,29.89,10.0,North,3.5,-,N/A,,Clear,350,2013-09-22 05:58:00
1:58 AM,53.6,52.2,95,29.90,10.0,North,3.5,-,N/A,,Clear,10,2013-09-22 06:58:00
2:58 AM,55.2,51.4,87,29.90,10.0,North,3.5,-,N/A,,Clear,360,2013-09-22 07:58:00
3:58 AM,52.0,51.4,98,29.91,10.0,North,5.8,-,N/A,,Clear,360,2013-09-22 08:58:00
4:58 AM,51.3,51.1,99,29.91,10.0,North,5.8,-,N/A,,Clear,10,2013-09-22 09:58:00
5:58 AM,50.0,50.0,100,29.92,10.0,North,5.8,-,N/A,,Clear,10,2013-09-22 10:58:00
6:58 AM,51.4,50.9,98,29.94,10.0,North,4.6,-,N/A,,Clear,10,2013-09-22 11:58:00
7:58 AM,55.6,54.7,97,29.95,10.0,North,5.8,-,N/A,,Clear,10,2013-09-22 12:58:00
8:58 AM,61.5,54.7,78,29.97,10.0,NE,8.1,-,N/A,,Clear,50,2013-09-22 13:58:00
9:58 AM,65.7,54.1,66,29.98,10.0,NE,6.9,-,N/A,,Clear,40,2013-09-22 14:58:00
10:58 AM,69.3,50.9,52,29.98,10.0,NNE,8.1,-,N/A,,Clear,30,2013-09-22 15:58:00
11:58 AM,71.2,50.5,48,29.97,10.0,NNE,13.8,-,N/A,,Clear,30,2013-09-22 16:58:00
12:58 PM,71.6,49.6,46,29.96,10.0,ENE,8.1,-,N/A,,Clear,70,2013-09-22 17:58:00
1:58 PM,72.9,51.4,47,29.94,10.0,NE,8.1,-,N/A,,Clear,40,2013-09-22 18:58:00
2:58 PM,73.0,51.6,47,29.93,10.0,North,6.9,-,N/A,,Clear,360,2013-09-22 19:58:00
3:58 PM,73.6,52.7,48,29.92,10.0,Variable,3.5,-,N/A,,Clear,0,2013-09-22 20:58:00
4:58 PM,72.7,52.0,48,29.91,10.0,North,6.9,-,N/A,,Clear,10,2013-09-22 21:58:00
5:22 PM,71.6,51.8,50,29.92,10.0,North,6.9,-,N/A,,Light Drizzle,350,2013-09-22 22:22:00
5:29 PM,71.6,51.8,50,29.92,10.0,NNE,4.6,-,N/A,,Clear,20,2013-09-22 22:29:00
5:58 PM,70.3,52.9,54,29.92,10.0,NNE,4.6,-,0.00,,Clear,30,2013-09-22 22:58:00
6:58 PM,64.4,52.9,66,29.92,10.0,North,4.6,-,N/A,,Clear,10,2013-09-22 23:58:00
7:58 PM,60.4,53.8,79,29.94,10.0,NNE,3.5,-,N/A,,Clear,20,2013-09-23 00:58:00
8:58 PM,59.5,53.4,80,29.95,10.0,NNE,4.6,-,N/A,,Clear,30,2013-09-23 01:58:00
9:58 PM,56.5,53.2,89,29.95,10.0,NE,6.9,-,N/A,,Clear,40,2013-09-23 02:58:00
10:58 PM,55.4,52.2,89,29.96,10.0,NE,6.9,-,N/A,,Clear,50,2013-09-23 03:58:00
11:58 PM,53.6,51.8,94,29.95,10.0,NE,8.1,-,N/A,,Clear,50,2013-09-23 04:58:00